Storm Events Database

Event Details

Event Thunderstorm Wind
Magnitude 56 kts.
State KANSAS
County/Area SCOTT
WFO DDC
Report Source NWS Employee
NCDC Data Source CSV
Begin Date 2010-04-22 18:07:00.0 CST-6
Begin Location 1SSE SHALLOW WATER
Begin Lat/Lon 38.36/-100.91
End Date 2010-04-22 18:07:00.0 CST-6
Deaths Direct/Indirect 0/0 (fatality details below, when available...)
Injuries Direct/Indirect 0/0
Property Damage
Crop Damage
Episode Narrative A mid level s/wv trough lifted northeast across the area and produced widespread thunderstorms. A east/west frontal boundary was the focusing mechanism. Hail and tornadoes were reported.
Event Narrative The off duty employee estimated the wind gusts to 65 mph.


     ‚Äč



All events for this episode:

Location County/Zone St. Date Time T.Z. Type Mag Dth Inj PrD CrD
Totals: 0 0 390.80K 0.00K
MAYLINE HAMILTON CO. KS 04/22/2010 12:51 MST-7 Hail 1.00 in. 0 0 0.00K 0.00K
MAYLINE HAMILTON CO. KS 04/22/2010 12:58 MST-7 Hail 1.00 in. 0 0 0.00K 0.00K
COLLANO MEADE CO. KS 04/22/2010 13:40 CST-6 Hail 1.00 in. 0 0 0.00K 0.00K
MONTEZUMA ARPT GRAY CO. KS 04/22/2010 13:42 CST-6 Hail 1.00 in. 0 0 0.00K 0.00K
KENDALL HAMILTON CO. KS 04/22/2010 13:45 MST-7 Hail 0.75 in. 0 0 0.00K 0.00K
KENDALL HAMILTON CO. KS 04/22/2010 14:00 MST-7 Hail 0.88 in. 0 0 0.00K 0.00K
MANTER STANTON CO. KS 04/22/2010 14:03 CST-6 Hail 0.75 in. 0 0 0.00K 0.00K
MANTER STANTON CO. KS 04/22/2010 14:12 CST-6 Hail 0.75 in. 0 0 0.00K 0.00K
ROLLA MORTON CO. KS 04/22/2010 15:35 CST-6 Hail 1.00 in. 0 0 0.00K 0.00K
KENDALL HAMILTON CO. KS 04/22/2010 15:40 MST-7 Hail 1.75 in. 0 0 0.00K 0.00K
ROLLA MORTON CO. KS 04/22/2010 15:40 CST-6 Hail 1.00 in. 0 0 0.00K 0.00K
LAKIN KEARNY CO. KS 04/22/2010 15:48 CST-6 Tornado EF1 0 0 180.00K 0.00K
RICHFIELD MORTON CO. KS 04/22/2010 15:55 CST-6 Hail 1.75 in. 0 0 0.00K 0.00K
RICHFIELD MORTON CO. KS 04/22/2010 15:55 CST-6 Hail 1.00 in. 0 0 0.00K 0.00K
RICHFIELD MORTON CO. KS 04/22/2010 15:55 CST-6 Thunderstorm Wind 61 kts. EG 0 0 0.00K 0.00K
LAKIN KEARNY CO. KS 04/22/2010 16:00 CST-6 Hail 2.75 in. 0 0 0.00K 0.00K
LAKIN WHITE ARPT KEARNY CO. KS 04/22/2010 16:04 CST-6 Tornado EF0 0 0 0.00K 0.00K
BIG BOW STANTON CO. KS 04/22/2010 16:25 CST-6 Hail 1.75 in. 0 0 0.00K 0.00K
BIG BOW STANTON CO. KS 04/22/2010 16:28 CST-6 Hail 1.25 in. 0 0 0.00K 0.00K
LAKE MC KINNEY KEARNY CO. KS 04/22/2010 16:32 CST-6 Tornado EF0 0 0 0.00K 0.00K
DEERFIELD KEARNY CO. KS 04/22/2010 16:55 CST-6 Hail 1.00 in. 0 0 0.00K 0.00K
DEERFIELD KEARNY CO. KS 04/22/2010 17:06 CST-6 Hail 2.00 in. 0 0 0.00K 0.00K
DEERFIELD KEARNY CO. KS 04/22/2010 17:06 CST-6 Hail 2.00 in. 0 0 0.00K 0.00K
TENNIS FINNEY CO. KS 04/22/2010 17:10 CST-6 Tornado EF1 0 0 0.80K 0.00K
FRIEND FINNEY CO. KS 04/22/2010 17:17 CST-6 Tornado EF0 0 0 0.00K 0.00K
SHALLOW WATER SCOTT CO. KS 04/22/2010 17:27 CST-6 Tornado EF0 0 0 0.00K 0.00K
LAKIN WHITE ARPT KEARNY CO. KS 04/22/2010 17:39 CST-6 Tornado EF0 0 0 0.00K 0.00K
SHALLOW WATER SCOTT CO. KS 04/22/2010 18:06 CST-6 Tornado EF1 0 0 210.00K 0.00K
SHALLOW WATER SCOTT CO. KS 04/22/2010 18:07 CST-6 Thunderstorm Wind 56 kts. EG 0 0 0.00K 0.00K
SHALLOW WATER SCOTT CO. KS 04/22/2010 18:07 CST-6 Hail 0.75 in. 0 0 0.00K 0.00K
SCOTT CITY SCOTT CO. KS 04/22/2010 18:09 CST-6 Hail 0.88 in. 0 0 0.00K 0.00K
SHALLOW WATER SCOTT CO. KS 04/22/2010 18:10 CST-6 Thunderstorm Wind 71 kts. MG 0 0 0.00K 0.00K
SCOTT CITY SCOTT CO. KS 04/22/2010 18:12 CST-6 Hail 1.25 in. 0 0 0.00K 0.00K
MANNING SCOTT CO. KS 04/22/2010 18:40 CST-6 Tornado EF0 0 0 0.00K 0.00K
SATANTA MUNI ARPT HASKELL CO. KS 04/22/2010 18:55 CST-6 Hail 1.25 in. 0 0 0.00K 0.00K
SATANTA MUNI ARPT HASKELL CO. KS 04/22/2010 18:55 CST-6 Thunderstorm Wind 56 kts. MG 0 0 0.00K 0.00K
HEALY LANE CO. KS 04/22/2010 18:57 CST-6 Tornado EF0 0 0 0.00K 0.00K
ENGLEWOOD CLARK CO. KS 04/22/2010 19:25 CST-6 Hail 0.75 in. 0 0 0.00K 0.00K
HOLCOMB FINNEY CO. KS 04/22/2010 19:31 CST-6 Thunderstorm Wind 52 kts. EG 0 0 0.00K 0.00K
HOLCOMB FINNEY CO. KS 04/22/2010 19:31 CST-6 Hail 0.75 in. 0 0 0.00K 0.00K
HOLCOMB FINNEY CO. KS 04/22/2010 19:31 CST-6 Hail 0.88 in. 0 0 0.00K 0.00K
HOLCOMB FINNEY CO. KS 04/22/2010 19:37 CST-6 Hail 0.75 in. 0 0 0.00K 0.00K
PROTECTION COMANCHE CO. KS 04/22/2010 20:40 CST-6 Hail 1.00 in. 0 0 0.00K 0.00K
HEALY LANE CO. KS 04/22/2010 21:00 CST-6 Flood 0 0 0.00K 0.00K
WAKEENEY TREGO CO. KS 04/22/2010 21:22 CST-6 Hail 1.00 in. 0 0 0.00K 0.00K
Totals: 0 0 390.80K 0.00K